SCP
0 0 0 0 0 0 0 0 0 0 0 0 0 0 0 0 0 0 0 0 0 0 0 0 0 0 0 0 0 0 0 0 0 0 0 0 0 0 0 0 0 0 0
0 0 0 0 0 0 0 0 0 0 0 0 0 0 0 0 0 0 0 0 0 0 0 0 0 0 0 0 0 0 0 0 0 0 0 0 0 0 0 0 0 0 0
0 0 0 0 0 0 0 0 0 0 0 0 0 0 0 0 0 0 0 0 0 0 0 0 0 0 0 0 0 0 0 0 0 0 0 0 0 0 0 0 0 0 0
0 0 0 0 0 0 0 0 0 0 0 0 0 0 0 0 0 0 0 0 0 0 0 0 0 0 0 0 0 0 0 0 0 0 0 0 0 0 0 0 0 0 0
0 0 0 0 0 0 0 0 0 0 0 0 0 0 0 0 0 0 0 0 0 0 0 0 0 0 0 0 0 0 0 0 0 0 0 0 0 0 0 0 0 0 0
0 0 0 0 0 0 0 0 0 0 0 0 0 0 0 0 0 0 0 0 0 0 0 0 0 0 0 0 0 0 0 0 0 0 0 0 0 0 0 0 0 0 0
0 0 0 0 0 0 0 0 0 0 0 0 0 0 0 0 0 0 0 0 0 0 0 0 0 0 0 0 0 0 0 0 0 0 0 0 0 0 0 0 0 0 0
0 0 0 0 0 0 0 0 0 0 0 0 0 0 0 0 0 0 0 0 0 0 0 0 0 0 0 0 0 0 0 0 0 0 0 0 0 0 0 0 0 0 0
0 0 0 0 0 0 0 0 0 0 0 0 0 0 0 0 0 0 0 0 0 0 0 0 0 0 0 0 0 0 0 0 0 0 0 0 0 0 0 0 0 0 0
0 0 0 0 0 0 0 0 0 0 0 0 0 0 0 0 0 0 0 0 0 0 0 0 0 0 0 0 0 0 0 0 0 0 0 0 0 0 0 0 0 0 0
0 0 0 0 0 0 0 0 0 0 0 0 0 0 0 0 0 0 0 0 0 0 0 0 0 0 0 0 0 0 0 0 0 0 0 0 0 0 0 0 0 0 0
0 0 0 0 0 0 0 0 0 0 0 0 0 0 0 0 0 0 0 0 0 0 0 0 0 0 0 0 0 0 0 0 0 0 0 0 0 0 0 0 0 0 0
0 0 0 0 0 0 0 0 0 0 0 0 0 0 0 0 0 0 0 0 0 0 0 0 0 0 0 0 0 0 0 0 0 0 0 0 0 0 0 0 0 0 0
0 0 0 0 0 0 0 0 0 0 0 0 0 0 0 0 0 0 0 0 0 0 0 0 0 0 0 0 0 0 0 0 0 0 0 0 0 0 0 0 0 0 0
0 0 0 0 0 0 0 0 0 0 0 0 0 0 0 0 0 0 0 0 0 0 0 0 0 0 0 0 0 0 0 0 0 0 0 0 0 0 0 0 0 0 0
0 0 0 0 0 0 0 0 0 0 0 0 0 0 0 0 0 0 0 0 0 0 0 0 0 0 0 0 0 0 0 0 0 0 0 0 0 0 0 0 0 0 0
0 0 0 0 0 0 0 0 0 0 0 0 0 0 0 0 0 0 0 0 0 0 0 0 0 0 0 0 0 0 0 0 0 0 0 0 0 0 0 0 0 0 0
0 0 0 0 0 0 0 0 0 0 0 0 0 0 0 0 0 0 0 0 0 0 0 0 0 0 0 0 0 0 0 0 0 0 0 0 0 0 0 0 0 0 0
0 0 0 0 0 0 0 0 0 0 0 0 0 0 0 0 0 0 0 0 0 0 0 0 0 0 0 0 0 0 0 0 0 0 0 0 0 0 0 0 0 0 0
0 0 0 0 0 0 0 0 0 0 0 0 0 0 0 0 0 0 0 0 0 0 0 0 0 0 0 0 0 0 0 0 0 0 0 0 0 0 0 0 0 0 0
0 0 0 0 0 0 0 0 0 0 0 0 0 0 0 0 0 0 0 0 0 0 0 0 0 0 0 0 0 0 0 0 0 0 0 0 0 0 0 0 0 0 0
0 0 0 0 0 0 0 0 0 0 0 0 0 0 0 0 0 0 0 0 0 0 0 0 0 0 0 0 0 0 0 0 0 0 0 0 0 0 0 0 0 0 0
0 0 0 0 0 0 0 0 0 0 0 0 0 0 0 0 0 0 0 0 0 0 0 0 0 0 0 0 0 0 0 0 0 0 0 0 0 0 0 0 0 0 0
0 0 0 0 0 0 0 0 0 0 0 0 0 0 0 0 0 0 0 0 0 0 0 0 0 0 0 0 0 0 0 0 0 0 0 0 0 0 0 0 0 0 0
0 0 0 0 0 0 0 0 0 0 0 0 0 0 0 0 0 0 0 0 0 0 0 0 0 0 0 0 0 0 0 0 0 0 0 0 0 0 0 0 0 0 0
0 0 0 0 0 0 0 0 0 0 0 0 0 0 0 0 0 0 0 0 0 0 0 0 0 0 0 0 0 0 0 0 0 0 0 0 0 0 0 0 0 0 0
Wind_Speed_500mb
68 64 62 60 59 61 63 62 61 58 56 54 52 50 48 49 52 55 56 57 59 57 57 61 62 56 60 61 61 58 58 53 55 57 49 42 46 47 44 50 48 49 52
62 61 58 56 55 56 58 56 54 54 52 52 51 49 51 52 51 54 56 54 52 52 54 51 55 60 58 50 48 48 49 46 43 46 40 42 39 43 45 45 44 48 48
53 58 58 56 55 53 52 51 52 53 55 55 53 52 50 50 47 46 44 48 51 57 58 57 52 46 49 43 47 43 45 47 39 36 33 36 39 42 44 42 45 48 50
44 47 48 48 48 49 49 50 50 51 50 48 45 44 44 44 46 47 50 48 54 53 58 53 55 53 51 50 47 43 39 36 34 32 34 36 37 42 40 40 46 49 47
36 38 38 38 38 38 39 40 40 41 40 40 41 41 42 44 47 50 51 52 50 52 55 53 49 47 54 43 39 39 43 45 36 33 35 35 38 37 39 41 40 41 44
33 32 32 33 33 34 34 32 31 30 31 32 34 36 39 40 39 40 43 46 46 41 39 40 38 37 37 36 37 38 26 22 24 25 28 30 33 37 35 35 49 44 55
36 36 36 36 35 32 29 27 27 27 26 25 24 23 27 30 36 40 43 40 36 30 22 19 17 20 19 19 18 16 16 17 15 15 18 21 29 28 36 39 42 44 47
41 40 39 38 34 31 29 28 27 25 24 24 24 24 25 26 29 30 26 22 20 14 12 12 14 17 19 20 17 17 18 14 13 16 20 25 28 30 35 41 44 47 48
46 44 42 40 36 31 31 31 30 31 30 27 24 23 23 22 19 15 15 15 14 12 13 15 17 20 19 23 17 15 11 10 13 17 21 24 26 33 39 42 41 44 49
51 46 46 42 38 37 37 36 34 31 28 24 19 17 16 13 9 9 12 10 10 13 11 10 12 15 18 19 20 18 13 15 17 18 22 26 30 34 38 38 38 41 44
53 53 51 46 43 43 39 36 32 28 25 22 21 19 12 8 6 8 10 10 12 10 9 8 10 15 17 17 18 12 11 14 15 19 23 28 29 34 35 37 39 42 45
62 59 55 51 48 45 41 38 34 30 26 22 22 15 9 7 9 10 11 10 7 9 10 12 15 18 17 14 14 14 14 20 23 25 27 29 32 35 38 42 42 41 41
68 62 59 55 50 46 45 41 36 31 29 25 21 17 13 12 10 10 9 7 4 3 7 10 13 15 15 15 16 18 20 24 25 28 30 31 34 39 41 44 44 46 46
72 66 64 58 55 52 47 41 36 34 32 28 25 23 22 21 17 10 8 7 6 6 4 6 8 11 13 16 16 19 22 24 26 30 35 37 40 42 44 43 46 46 52
73 72 70 66 60 56 47 41 39 37 28 29 31 29 28 24 18 13 10 9 9 8 8 8 9 11 12 13 13 15 17 20 23 26 31 34 36 37 38 36 40 42 48
78 80 78 73 67 62 59 57 49 39 37 34 31 26 27 22 17 14 11 9 9 8 9 9 10 11 13 15 17 17 19 21 24 28 31 34 36 38 39 40 39 41 44
82 85 80 73 69 66 63 59 61 55 46 40 33 30 25 19 16 12 7 7 6 5 4 6 7 9 12 13 16 19 22 25 29 32 35 36 37 38 39 42 40 40 43
79 80 76 73 67 63 60 58 51 49 50 45 37 28 23 18 15 12 9 6 4 3 5 8 9 10 12 14 17 19 23 27 31 35 38 40 42 43 40 40 41 40 42
75 75 71 67 65 62 59 53 49 47 43 38 32 27 22 19 15 12 8 3 2 4 7 9 11 12 14 17 20 24 27 31 35 37 39 42 44 47 47 46 46 44 46
65 64 65 66 66 63 57 53 50 44 38 32 28 25 21 17 12 7 3 3 5 7 9 12 14 17 20 23 26 28 32 35 37 39 41 41 41 41 43 47 49 54 56
66 66 64 62 60 56 51 47 42 38 34 32 27 23 18 13 10 7 6 7 10 14 16 19 22 24 28 31 32 35 37 39 42 43 42 41 40 39 39 41 43 45 47
63 64 62 60 59 54 49 42 38 36 33 29 26 22 17 13 11 10 11 13 17 19 22 25 28 31 33 36 38 38 40 41 42 42 41 41 39 39 40 41 42 42 41
56 59 59 57 52 47 41 38 36 33 30 27 23 19 17 14 14 16 19 22 26 29 31 32 34 37 39 41 41 41 41 42 43 45 45 44 41 41 41 41 40 40 39
48 48 47 44 40 36 34 32 29 27 24 21 20 21 21 21 22 24 26 30 33 37 38 38 38 38 38 40 41 42 43 43 43 45 48 47 45 42 42 40 38 36 37
39 37 34 31 29 26 25 21 16 22 29 34 32 28 28 29 30 32 35 38 39 39 40 40 40 39 40 40 41 41 42 43 44 47 48 48 47 44 43 40 36 35 34
25 22 19 18 18 25 33 35 32 33 32 33 36 37 37 37 40 41 43 42 42 41 40 41 42 42 43 43 45 45 44 44 45 46 48 47 46 44 42 41 36 35 33
Wind_Direction_500mb
236 240 242 244 245 246 251 255 256 258 259 259 261 260 258 258 260 262 264 266 271 275 278 281 284 293 294 288 285 288 290 285 277 287 298 287 284 281 276 261 246 252 257
233 238 241 242 242 244 246 248 249 250 251 252 254 255 254 256 258 261 264 270 271 278 282 280 281 280 286 288 284 286 291 292 291 294 298 289 296 284 266 256 258 261 258
232 232 233 236 237 240 244 246 247 248 249 250 250 251 253 256 255 261 262 267 266 267 275 276 277 279 278 281 291 296 296 301 300 299 303 301 294 281 267 262 270 257 260
227 225 225 227 233 238 243 246 249 250 250 251 252 254 255 253 258 258 260 265 266 266 265 270 275 277 282 287 291 294 296 293 293 292 289 285 280 272 265 271 271 269 273
216 217 218 220 224 230 236 241 245 251 255 258 258 256 253 252 253 254 254 256 261 266 272 274 276 282 290 289 285 289 295 296 293 286 279 283 280 280 285 286 279 283 281
207 211 216 222 228 233 238 242 246 247 248 249 249 248 247 248 250 252 252 258 262 264 267 273 275 284 286 285 286 289 281 278 286 281 282 287 291 292 288 285 288 284 291
215 220 227 231 234 236 236 236 234 232 231 231 232 231 228 232 241 246 253 257 260 262 269 279 276 277 278 280 276 275 281 283 276 275 286 293 290 288 285 290 291 287 286
227 230 235 238 235 231 230 230 229 226 224 221 223 227 233 238 247 256 252 245 248 264 282 294 294 291 290 282 277 271 269 279 287 285 279 286 287 285 284 287 285 284 283
234 238 239 234 231 229 226 222 216 215 214 216 219 230 241 251 264 266 260 262 260 261 274 281 286 290 291 286 277 267 260 258 258 268 280 280 279 288 289 290 289 286 287
234 239 235 230 226 221 215 213 210 209 214 219 224 237 243 249 264 273 275 280 265 272 300 322 309 295 277 276 274 262 251 249 249 266 274 282 287 289 290 287 285 286 287
231 234 232 227 223 217 210 206 207 208 209 206 204 206 208 227 241 219 232 232 221 250 290 296 290 286 282 268 270 267 265 269 272 282 285 287 290 293 293 293 294 293 290
227 228 225 219 214 208 203 201 195 193 191 189 191 192 199 218 229 216 225 235 232 238 258 268 274 274 279 272 273 282 285 289 292 291 291 294 297 295 295 295 296 295 290
220 219 214 208 203 199 196 192 188 187 188 184 182 179 175 186 194 198 186 197 199 238 274 289 296 302 307 302 298 292 290 291 293 295 297 299 299 300 300 301 299 299 298
213 208 203 199 193 189 187 187 188 187 183 178 172 164 161 161 153 145 129 119 94 73 23 342 314 302 297 297 296 293 291 294 301 304 305 309 312 314 315 315 312 314 309
204 199 194 188 187 185 182 182 181 174 171 171 165 161 159 149 138 131 119 107 87 73 53 39 18 8 359 352 341 329 320 313 308 303 307 312 312 311 311 314 310 308 306
197 193 188 183 182 183 182 174 167 175 167 161 164 160 152 143 143 140 130 110 90 69 61 38 23 10 4 2 0 355 345 335 325 319 316 315 315 315 314 313 311 311 309
198 191 185 183 183 183 182 179 171 163 161 159 158 157 148 148 143 135 135 124 98 66 39 36 14 6 356 351 346 342 338 332 325 320 319 317 314 312 312 312 315 314 310
195 194 187 183 183 181 180 178 177 173 168 163 160 155 149 150 156 165 165 159 128 73 11 5 360 351 342 340 338 332 325 321 318 317 315 313 311 309 310 310 309 310 306
193 192 186 180 176 175 174 172 168 165 164 166 163 158 162 164 167 167 159 140 8 331 333 335 334 331 329 324 319 317 316 314 312 312 311 310 305 302 300 298 297 293 289
190 188 180 175 173 173 172 172 167 165 163 164 163 164 167 167 175 175 176 256 285 306 313 308 305 305 306 308 311 312 311 309 310 312 311 306 304 304 303 298 293 290 291
186 180 176 173 172 171 170 170 168 167 166 164 164 168 171 183 199 213 245 274 286 290 292 296 301 304 307 307 306 306 307 308 308 308 306 304 306 307 302 299 302 302 301
180 174 170 170 168 168 170 171 171 171 172 174 177 181 187 204 224 243 261 271 279 283 287 293 296 298 299 300 303 305 305 305 306 306 305 306 309 308 307 309 309 306 303
174 169 168 169 170 170 173 177 178 179 183 189 194 205 215 230 249 268 281 289 293 294 296 297 298 299 300 303 304 304 304 305 305 304 304 308 312 310 310 310 310 310 308
168 168 170 172 172 175 180 185 189 195 202 214 227 235 241 252 265 276 285 289 292 293 294 295 295 296 296 297 298 299 300 302 303 304 306 309 309 308 306 308 310 311 309
166 170 173 177 180 186 192 202 224 246 249 247 243 249 256 262 272 279 284 286 287 287 289 290 291 293 293 293 293 294 296 299 301 301 302 302 302 303 303 305 305 305 304
163 167 176 189 211 228 232 235 242 247 252 262 265 265 268 273 276 281 283 284 282 281 282 285 288 289 290 292 292 293 294 295 294 293 293 294 297 299 299 300 301 299 298
Wind_Speed_850mb
68 64 62 60 59 61 63 62 61 58 56 54 52 50 48 49 52 55 56 57 59 57 57 61 62 56 60 61 61 58 58 53 55 57 49 42 46 47 44 50 48 49 52
62 61 58 56 55 56 58 56 54 54 52 52 51 49 51 52 51 54 56 54 52 52 54 51 55 60 58 50 48 48 49 46 43 46 40 42 39 43 45 45 44 48 48
53 58 58 56 55 53 52 51 52 53 55 55 53 52 50 50 47 46 44 48 51 57 58 57 52 46 49 43 47 43 45 47 39 36 33 36 39 42 44 42 45 48 50
44 47 48 48 48 49 49 50 50 51 50 48 45 44 44 44 46 47 50 48 54 53 58 53 55 53 51 50 47 43 39 36 34 32 34 36 37 42 40 40 46 49 47
36 38 38 38 38 38 39 40 40 41 40 40 41 41 42 44 47 50 51 52 50 52 55 53 49 47 54 43 39 39 43 45 36 33 35 35 38 37 39 41 40 41 44
33 32 32 33 33 34 34 32 31 30 31 32 34 36 39 40 39 40 43 46 46 41 39 40 38 37 37 36 37 38 26 22 24 25 28 30 33 37 35 35 49 44 55
36 36 36 36 35 32 29 27 27 27 26 25 24 23 27 30 36 40 43 40 36 30 22 19 17 20 19 19 18 16 16 17 15 15 18 21 29 28 36 39 42 44 47
41 40 39 38 34 31 29 28 27 25 24 24 24 24 25 26 29 30 26 22 20 14 12 12 14 17 19 20 17 17 18 14 13 16 20 25 28 30 35 41 44 47 48
46 44 42 40 36 31 31 31 30 31 30 27 24 23 23 22 19 15 15 15 14 12 13 15 17 20 19 23 17 15 11 10 13 17 21 24 26 33 39 42 41 44 49
51 46 46 42 38 37 37 36 34 31 28 24 19 17 16 13 9 9 12 10 10 13 11 10 12 15 18 19 20 18 13 15 17 18 22 26 30 34 38 38 38 41 44
53 53 51 46 43 43 39 36 32 28 25 22 21 19 12 8 6 8 10 10 12 10 9 8 10 15 17 17 18 12 11 14 15 19 23 28 29 34 35 37 39 42 45
62 59 55 51 48 45 41 38 34 30 26 22 22 15 9 7 9 10 11 10 7 9 10 12 15 18 17 14 14 14 14 20 23 25 27 29 32 35 38 42 42 41 41
68 62 59 55 50 46 45 41 36 31 29 25 21 17 13 12 10 10 9 7 4 3 7 10 13 15 15 15 16 18 20 24 25 28 30 31 34 39 41 44 44 46 46
72 66 64 58 55 52 47 41 36 34 32 28 25 23 22 21 17 10 8 7 6 6 4 6 8 11 13 16 16 19 22 24 26 30 35 37 40 42 44 43 46 46 52
73 72 70 66 60 56 47 41 39 37 28 29 31 29 28 24 18 13 10 9 9 8 8 8 9 11 12 13 13 15 17 20 23 26 31 34 36 37 38 36 40 42 48
78 80 78 73 67 62 59 57 49 39 37 34 31 26 27 22 17 14 11 9 9 8 9 9 10 11 13 15 17 17 19 21 24 28 31 34 36 38 39 40 39 41 44
82 85 80 73 69 66 63 59 61 55 46 40 33 30 25 19 16 12 7 7 6 5 4 6 7 9 12 13 16 19 22 25 29 32 35 36 37 38 39 42 40 40 43
79 80 76 73 67 63 60 58 51 49 50 45 37 28 23 18 15 12 9 6 4 3 5 8 9 10 12 14 17 19 23 27 31 35 38 40 42 43 40 40 41 40 42
75 75 71 67 65 62 59 53 49 47 43 38 32 27 22 19 15 12 8 3 2 4 7 9 11 12 14 17 20 24 27 31 35 37 39 42 44 47 47 46 46 44 46
65 64 65 66 66 63 57 53 50 44 38 32 28 25 21 17 12 7 3 3 5 7 9 12 14 17 20 23 26 28 32 35 37 39 41 41 41 41 43 47 49 54 56
66 66 64 62 60 56 51 47 42 38 34 32 27 23 18 13 10 7 6 7 10 14 16 19 22 24 28 31 32 35 37 39 42 43 42 41 40 39 39 41 43 45 47
63 64 62 60 59 54 49 42 38 36 33 29 26 22 17 13 11 10 11 13 17 19 22 25 28 31 33 36 38 38 40 41 42 42 41 41 39 39 40 41 42 42 41
56 59 59 57 52 47 41 38 36 33 30 27 23 19 17 14 14 16 19 22 26 29 31 32 34 37 39 41 41 41 41 42 43 45 45 44 41 41 41 41 40 40 39
48 48 47 44 40 36 34 32 29 27 24 21 20 21 21 21 22 24 26 30 33 37 38 38 38 38 38 40 41 42 43 43 43 45 48 47 45 42 42 40 38 36 37
39 37 34 31 29 26 25 21 16 22 29 34 32 28 28 29 30 32 35 38 39 39 40 40 40 39 40 40 41 41 42 43 44 47 48 48 47 44 43 40 36 35 34
25 22 19 18 18 25 33 35 32 33 32 33 36 37 37 37 40 41 43 42 42 41 40 41 42 42 43 43 45 45 44 44 45 46 48 47 46 44 42 41 36 35 33
Wind_Direction_850mb
236 240 242 244 245 246 251 255 256 258 259 259 261 260 258 258 260 262 264 266 271 275 278 281 284 293 294 288 285 288 290 285 277 287 298 287 284 281 276 261 246 252 257
233 238 241 242 242 244 246 248 249 250 251 252 254 255 254 256 258 261 264 270 271 278 282 280 281 280 286 288 284 286 291 292 291 294 298 289 296 284 266 256 258 261 258
232 232 233 236 237 240 244 246 247 248 249 250 250 251 253 256 255 261 262 267 266 267 275 276 277 279 278 281 291 296 296 301 300 299 303 301 294 281 267 262 270 257 260
227 225 225 227 233 238 243 246 249 250 250 251 252 254 255 253 258 258 260 265 266 266 265 270 275 277 282 287 291 294 296 293 293 292 289 285 280 272 265 271 271 269 273
216 217 218 220 224 230 236 241 245 251 255 258 258 256 253 252 253 254 254 256 261 266 272 274 276 282 290 289 285 289 295 296 293 286 279 283 280 280 285 286 279 283 281
207 211 216 222 228 233 238 242 246 247 248 249 249 248 247 248 250 252 252 258 262 264 267 273 275 284 286 285 286 289 281 278 286 281 282 287 291 292 288 285 288 284 291
215 220 227 231 234 236 236 236 234 232 231 231 232 231 228 232 241 246 253 257 260 262 269 279 276 277 278 280 276 275 281 283 276 275 286 293 290 288 285 290 291 287 286
227 230 235 238 235 231 230 230 229 226 224 221 223 227 233 238 247 256 252 245 248 264 282 294 294 291 290 282 277 271 269 279 287 285 279 286 287 285 284 287 285 284 283
234 238 239 234 231 229 226 222 216 215 214 216 219 230 241 251 264 266 260 262 260 261 274 281 286 290 291 286 277 267 260 258 258 268 280 280 279 288 289 290 289 286 287
234 239 235 230 226 221 215 213 210 209 214 219 224 237 243 249 264 273 275 280 265 272 300 322 309 295 277 276 274 262 251 249 249 266 274 282 287 289 290 287 285 286 287
231 234 232 227 223 217 210 206 207 208 209 206 204 206 208 227 241 219 232 232 221 250 290 296 290 286 282 268 270 267 265 269 272 282 285 287 290 293 293 293 294 293 290
227 228 225 219 214 208 203 201 195 193 191 189 191 192 199 218 229 216 225 235 232 238 258 268 274 274 279 272 273 282 285 289 292 291 291 294 297 295 295 295 296 295 290
220 219 214 208 203 199 196 192 188 187 188 184 182 179 175 186 194 198 186 197 199 238 274 289 296 302 307 302 298 292 290 291 293 295 297 299 299 300 300 301 299 299 298
213 208 203 199 193 189 187 187 188 187 183 178 172 164 161 161 153 145 129 119 94 73 23 342 314 302 297 297 296 293 291 294 301 304 305 309 312 314 315 315 312 314 309
204 199 194 188 187 185 182 182 181 174 171 171 165 161 159 149 138 131 119 107 87 73 53 39 18 8 359 352 341 329 320 313 308 303 307 312 312 311 311 314 310 308 306
197 193 188 183 182 183 182 174 167 175 167 161 164 160 152 143 143 140 130 110 90 69 61 38 23 10 4 2 0 355 345 335 325 319 316 315 315 315 314 313 311 311 309
198 191 185 183 183 183 182 179 171 163 161 159 158 157 148 148 143 135 135 124 98 66 39 36 14 6 356 351 346 342 338 332 325 320 319 317 314 312 312 312 315 314 310
195 194 187 183 183 181 180 178 177 173 168 163 160 155 149 150 156 165 165 159 128 73 11 5 360 351 342 340 338 332 325 321 318 317 315 313 311 309 310 310 309 310 306
193 192 186 180 176 175 174 172 168 165 164 166 163 158 162 164 167 167 159 140 8 331 333 335 334 331 329 324 319 317 316 314 312 312 311 310 305 302 300 298 297 293 289
190 188 180 175 173 173 172 172 167 165 163 164 163 164 167 167 175 175 176 256 285 306 313 308 305 305 306 308 311 312 311 309 310 312 311 306 304 304 303 298 293 290 291
186 180 176 173 172 171 170 170 168 167 166 164 164 168 171 183 199 213 245 274 286 290 292 296 301 304 307 307 306 306 307 308 308 308 306 304 306 307 302 299 302 302 301
180 174 170 170 168 168 170 171 171 171 172 174 177 181 187 204 224 243 261 271 279 283 287 293 296 298 299 300 303 305 305 305 306 306 305 306 309 308 307 309 309 306 303
174 169 168 169 170 170 173 177 178 179 183 189 194 205 215 230 249 268 281 289 293 294 296 297 298 299 300 303 304 304 304 305 305 304 304 308 312 310 310 310 310 310 308
168 168 170 172 172 175 180 185 189 195 202 214 227 235 241 252 265 276 285 289 292 293 294 295 295 296 296 297 298 299 300 302 303 304 306 309 309 308 306 308 310 311 309
166 170 173 177 180 186 192 202 224 246 249 247 243 249 256 262 272 279 284 286 287 287 289 290 291 293 293 293 293 294 296 299 301 301 302 302 302 303 303 305 305 305 304
163 167 176 189 211 228 232 235 242 247 252 262 265 265 268 273 276 281 283 284 282 281 282 285 288 289 290 292 292 293 294 295 294 293 293 294 297 299 299 300 301 299 298